Погода в Эр-Рияде

Саудовская Аравия     24˚39′55″N   46˚44′09″E
темп.,
°C
ветер,
м/с
пор.,
м/с
влажн.,
%
обл.,
%
осадки,
мм/ч
давл.,
гПа
погр.,
м
6 декабря, вс
вс600:00+21˚ю58394 0.0 1012149
03:00+22˚юз363519 0.0 1011179
06:00+21˚зсз7114972 0.0 1013297
09:00+22˚сз781964 0.0 1014693
12:00+25˚зсз78163 0.0 10141462
15:00+25˚зсз77172 0.0 10121950
18:00+20˚сз69260 0.0 1016161
21:00+17˚ссз611340 0.0 1018233
7 декабря, пн
пн700:00+15˚ссз59460 0.0 1019177
03:00+13˚ссз58660 0.0 1018177
06:00+12˚с610800 0.0 1021182
09:00+16˚с57580 0.0 1023640
12:00+19˚ссз55340 0.0 10211151
15:00+20˚ссз44270 0.0 10201341
18:00+16˚ссв45360 0.0 102179
21:00+13˚ссв45420 0.0 102364
8 декабря, вт
вт800:00+11˚ссв34480 0.0 102343
03:00+10˚с34520 0.0 102344
06:00+8˚ссз22600 0.0 102442
09:00+14˚ссз23390 0.0 1025416
12:00+19˚ссз34250 0.0 10231021
15:00+20˚ссз44200 0.0 10211263
18:00+15˚ссз34290 0.0 102269
21:00+13˚св34360 0.0 102440
9 декабря, ср
ср900:00+10˚ссв23470 0.0 102436
03:00+9˚ссз12550 0.0 102335
06:00+8˚сз11640 0.0 102332
09:00+16˚зюз11320 0.0 1024285
12:00+21˚сз23200 0.0 10221006
15:00+23˚ссз45170 0.0 10191384
18:00+17˚ссв34260 0.0 101946
21:00+14˚ссв23310 0.0 102034
10 декабря, чт
чт1000:00+12˚юв11370 0.0 102028
03:00+11˚ю12380 0.0 102026
06:00+11˚юз12390 0.0 102124
09:00+20˚сз56250 0.0 1022449
12:00+23˚ссз55240 0.0 10191010
15:00+23˚ссз57220 0.0 10181688
18:00+18˚с56310 0.0 101983
21:00+15˚ссв45460 0.0 102156